| time (UTC) | temp C | wind direction | speed KPH | gust KPH | rain 1hr cm | rain 24hr cm | rain mn cm | humidity % | barometer mb |
| 20260905054828 | 22 | 292 | 0.0 | 0.0 | 0.00 | 0.00 | 0.00 | 32 | 1015.1 |
| 20260905053844 | 22 | 297 | 0.0 | 1.6 | 0.00 | 0.00 | 0.00 | 29 | 1015.0 |
| 20260905053728 | 22 | 15 | 0.0 | 0.0 | 0.00 | 0.00 | 0.00 | 29 | 1014.9 |
| 20260905052728 | 22 | 22 | 0.0 | 0.0 | 0.00 | 0.00 | 0.00 | 30 | 1015.2 |
| 20260905051745 | 23 | 90 | 0.0 | 0.0 | 0.00 | 0.00 | 0.00 | 28 | 1014.9 |
| 20260905050728 | 24 | 90 | 0.0 | 0.0 | 0.00 | 0.00 | 0.00 | 25 | 1014.9 |
| 20260905045744 | 23 | 90 | 0.0 | 1.6 | 0.00 | 0.00 | 0.00 | 25 | 1014.6 |
| 20260905044825 | 23 | 90 | 0.0 | 3.2 | 0.00 | 0.00 | 0.00 | 26 | 1014.5 |
| 20260905043843 | 23 | 333 | 0.0 | 0.0 | 0.00 | 0.00 | 0.00 | 28 | 1014.7 |
| 20260905042826 | 23 | 315 | 3.2 | 3.2 | 0.00 | 0.00 | 0.00 | 30 | 1014.6 |
| 20260905041844 | 24 | 315 | 0.0 | 0.0 | 0.00 | 0.00 | 0.00 | 28 | 1014.5 |
| 20260905040926 | 25 | 315 | 0.0 | 0.0 | 0.00 | 0.00 | 0.00 | 26 | 1014.4 |
| 20260905035927 | 25 | 315 | 0.0 | 0.0 | 0.00 | 0.00 | 0.00 | 24 | 1014.3 |
| 20260905034944 | 26 | 112 | 0.0 | 0.0 | 0.00 | 0.00 | 0.00 | 22 | 1014.1 |
| 20260905034843 | 26 | 112 | 0.0 | 0.0 | 0.00 | 0.00 | 0.00 | 21 | 1014.2 |
| 20260905033928 | 26 | 112 | 0.0 | 1.6 | 0.00 | 0.00 | 0.00 | 22 | 1014.1 |
| 20260905033027 | 27 | 202 | 0.0 | 0.0 | 0.00 | 0.00 | 0.00 | 21 | 1014.1 |
| 20260905032026 | 27 | 202 | 0.0 | 0.0 | 0.00 | 0.00 | 0.00 | 19 | 1013.9 |
| 20260905030127 | 28 | 225 | 0.0 | 0.0 | 0.00 | 0.00 | 0.00 | 19 | 1013.6 |
| 20260905025227 | 28 | 112 | 0.0 | 0.0 | 0.00 | 0.00 | 0.00 | 18 | 1013.3 |
| 20260905024226 | 29 | 112 | 1.6 | 3.2 | 0.00 | 0.00 | 0.00 | 19 | 1013.2 |
| 20260905023228 | 30 | 225 | 0.0 | 0.0 | 0.00 | 0.00 | 0.00 | 16 | 1013.1 |
| 20260905022243 | 30 | 225 | 3.2 | 4.8 | 0.00 | 0.00 | 0.00 | 16 | 1013.0 |
| 20260905022127 | 30 | 225 | 3.2 | 4.8 | 0.00 | 0.00 | 0.00 | 16 | 1012.9 |
| 20260905021126 | 31 | 259 | 4.8 | 6.4 | 0.00 | 0.00 | 0.00 | 16 | 1013.0 |
| 20260905015242 | 31 | 226 | 6.4 | 11.3 | 0.00 | 0.00 | 0.00 | 17 | 1012.8 |
| 20260905014327 | 32 | 219 | 11.3 | 16.1 | 0.00 | 0.00 | 0.00 | 17 | 1012.8 |
| 20260905013343 | 32 | 255 | 9.7 | 14.5 | 0.00 | 0.00 | 0.00 | 17 | 1012.8 |
| 20260905011427 | 32 | 250 | 6.4 | 11.3 | 0.00 | 0.00 | 0.00 | 18 | 1012.6 |
| 20260905010445 | 32 | 219 | 9.7 | 14.5 | 0.00 | 0.00 | 0.00 | 18 | 1012.6 |
| 20260905005526 | 33 | 237 | 11.3 | 14.5 | 0.00 | 0.00 | 0.00 | 19 | 1012.5 |
| 20260905004542 | 33 | 235 | 8.0 | 11.3 | 0.00 | 0.00 | 0.00 | 17 | 1012.5 |
| 20260905003542 | 33 | 209 | 6.4 | 11.3 | 0.00 | 0.00 | 0.00 | 18 | 1012.5 |
| 20260905002626 | 33 | 224 | 8.0 | 11.3 | 0.00 | 0.00 | 0.00 | 17 | 1012.7 |
| 20260905001629 | 33 | 235 | 12.9 | 25.7 | 0.00 | 0.00 | 0.00 | 18 | 1012.5 |
| 20260905000643 | 33 | 235 | 17.7 | 30.6 | 0.00 | 0.00 | 0.00 | 18 | 1012.8 |
| 20260904235628 | 33 | 206 | 19.3 | 29.0 | 0.00 | 0.00 | 0.00 | 18 | 1012.5 |
| 20260904234644 | 33 | 245 | 12.9 | 20.9 | 0.00 | 0.00 | 0.00 | 18 | 1012.5 |
| 20260904232744 | 35 | 228 | 11.3 | 17.7 | 0.00 | 0.00 | 0.00 | 17 | 1012.4 |
| 20260904231825 | 34 | 201 | 11.3 | 22.5 | 0.00 | 0.00 | 0.00 | 17 | 1012.4 |
| 20260904230842 | 34 | 238 | 20.9 | 29.0 | 0.00 | 0.00 | 0.00 | 19 | 1012.4 |
| 20260904225826 | 34 | 227 | 11.3 | 20.9 | 0.00 | 0.00 | 0.00 | 19 | 1012.4 |
| 20260904224843 | 35 | 226 | 20.9 | 29.0 | 0.00 | 0.00 | 0.00 | 16 | 1012.4 |
| 20260904223942 | 35 | 182 | 8.0 | 11.3 | 0.00 | 0.00 | 0.00 | 16 | 1012.5 |
| 20260904223025 | 34 | 226 | 17.7 | 29.0 | 0.00 | 0.00 | 0.00 | 18 | 1012.7 |
| 20260904222025 | 34 | 280 | 8.0 | 12.9 | 0.00 | 0.00 | 0.00 | 19 | 1012.8 |
| 20260904221027 | 34 | 252 | 16.1 | 27.4 | 0.00 | 0.00 | 0.00 | 19 | 1012.8 |
| 20260904220127 | 35 | 215 | 12.9 | 16.1 | 0.00 | 0.00 | 0.00 | 19 | 1012.9 |
| 20260904215126 | 35 | 221 | 20.9 | 27.4 | 0.00 | 0.00 | 0.00 | 18 | 1013.0 |
| 20260904214127 | 35 | 240 | 14.5 | 22.5 | 0.00 | 0.00 | 0.00 | 18 | 1013.0 |
| 20260904213141 | 33 | 219 | 9.7 | 17.7 | 0.00 | 0.00 | 0.00 | 20 | 1013.2 |
| 20260904212125 | 34 | 240 | 9.7 | 14.5 | 0.00 | 0.00 | 0.00 | 20 | 1013.3 |
| 20260904211127 | 34 | 230 | 11.3 | 14.5 | 0.00 | 0.00 | 0.00 | 19 | 1013.4 |
| 20260904210144 | 34 | 165 | 9.7 | 14.5 | 0.00 | 0.00 | 0.00 | 19 | 1013.5 |
| 20260904210026 | 34 | 184 | 6.4 | 9.7 | 0.00 | 0.00 | 0.00 | 20 | 1013.5 |
| 20260904205027 | 33 | 244 | 14.5 | 22.5 | 0.00 | 0.00 | 0.00 | 19 | 1013.7 |
| 20260904204028 | 33 | 179 | 14.5 | 24.1 | 0.00 | 0.00 | 0.00 | 18 | 1013.7 |
| 20260904203028 | 33 | 231 | 8.0 | 16.1 | 0.00 | 0.00 | 0.00 | 18 | 1013.8 |
| 20260904202126 | 33 | 260 | 8.0 | 12.9 | 0.00 | 0.00 | 0.00 | 17 | 1014.0 |
| 20260904195226 | 32 | 242 | 6.4 | 11.3 | 0.00 | 0.00 | 0.00 | 18 | 1014.3 |
| 20260904193225 | 32 | 239 | 14.5 | 22.5 | 0.00 | 0.00 | 0.00 | 19 | 1014.4 |
| 20260904192224 | 32 | 205 | 9.7 | 17.7 | 0.00 | 0.00 | 0.00 | 18 | 1014.6 |
| 20260904192126 | 32 | 203 | 9.7 | 14.5 | 0.00 | 0.00 | 0.00 | 19 | 1014.7 |
| 20260904190241 | 32 | 188 | 16.1 | 25.7 | 0.00 | 0.00 | 0.00 | 19 | 1014.7 |
| 20260904185326 | 32 | 196 | 14.5 | 24.1 | 0.00 | 0.00 | 0.00 | 20 | 1014.7 |
| 20260904183326 | 32 | 195 | 19.3 | 25.7 | 0.00 | 0.00 | 0.00 | 21 | 1014.8 |
| 20260904182327 | 32 | 222 | 9.7 | 14.5 | 0.00 | 0.00 | 0.00 | 21 | 1014.9 |
| 20260904182241 | 32 | 244 | 12.9 | 20.9 | 0.00 | 0.00 | 0.00 | 21 | 1014.9 |
| 20260904181240 | 32 | 162 | 8.0 | 12.9 | 0.00 | 0.00 | 0.00 | 20 | 1015.3 |
| 20260904180227 | 31 | 175 | 6.4 | 9.7 | 0.00 | 0.00 | 0.00 | 21 | 1015.3 |
| 20260904174243 | 31 | 197 | 8.0 | 12.9 | 0.00 | 0.00 | 0.00 | 21 | 1015.5 |
| 20260904173225 | 31 | 132 | 4.8 | 11.3 | 0.00 | 0.00 | 0.00 | 22 | 1015.4 |
| 20260904171243 | 31 | 190 | 9.7 | 14.5 | 0.00 | 0.00 | 0.00 | 21 | 1015.6 |
| 20260904170242 | 30 | 129 | 4.8 | 9.7 | 0.00 | 0.00 | 0.00 | 22 | 1015.7 |
| 20260904165227 | 30 | 114 | 8.0 | 11.3 | 0.00 | 0.00 | 0.00 | 22 | 1015.7 |
| 20260904164241 | 29 | 106 | 6.4 | 11.3 | 0.00 | 0.00 | 0.00 | 24 | 1015.9 |
| 20260904163242 | 28 | 200 | 3.2 | 6.4 | 0.00 | 0.00 | 0.00 | 25 | 1015.9 |
| 20260904162226 | 28 | 188 | 6.4 | 9.7 | 0.00 | 0.00 | 0.00 | 24 | 1016.0 |
| 20260904161226 | 28 | 202 | 4.8 | 6.4 | 0.00 | 0.00 | 0.00 | 25 | 1015.9 |
| 20260904160227 | 27 | 180 | 4.8 | 6.4 | 0.00 | 0.00 | 0.00 | 26 | 1015.9 |
| 20260904154240 | 26 | 179 | 3.2 | 6.4 | 0.00 | 0.00 | 0.00 | 26 | 1016.0 |
| 20260904152324 | 25 | 180 | 0.0 | 3.2 | 0.00 | 0.00 | 0.00 | 30 | 1016.0 |
| 20260904151326 | 25 | 360 | 0.0 | 0.0 | 0.00 | 0.00 | 0.00 | 32 | 1016.0 |
| 20260904150342 | 24 | 360 | 0.0 | 0.0 | 0.00 | 0.00 | 0.00 | 32 | 1015.9 |
| 20260904145425 | 23 | 360 | 1.6 | 1.6 | 0.00 | 0.00 | 0.00 | 35 | 1016.0 |
| 20260904144524 | 22 | 360 | 0.0 | 0.0 | 0.00 | 0.00 | 0.00 | 38 | 1016.0 |
| 20260904143527 | 21 | 315 | 0.0 | 0.0 | 0.00 | 0.00 | 0.00 | 40 | 1016.0 |
| 20260904142525 | 20 | 318 | 1.6 | 3.2 | 0.00 | 0.00 | 0.00 | 40 | 1015.9 |
| 20260904141624 | 20 | 337 | 0.0 | 0.0 | 0.00 | 0.00 | 0.00 | 41 | 1016.0 |
| 20260904135625 | 17 | 360 | 0.0 | 1.6 | 0.00 | 0.00 | 0.00 | 44 | 1015.6 |
| 20260904135542 | 17 | 360 | 0.0 | 0.0 | 0.00 | 0.00 | 0.00 | 44 | 1015.6 |
| 20260904134642 | 17 | 360 | 1.6 | 3.2 | 0.00 | 0.00 | 0.00 | 48 | 1015.5 |
| 20260904133626 | 16 | 360 | 0.0 | 1.6 | 0.00 | 0.00 | 0.00 | 49 | 1015.4 |
| 20260904132540 | 15 | 360 | 1.6 | 3.2 | 0.00 | 0.00 | 0.00 | 52 | 1015.3 |
| 20260904131525 | 15 | 22 | 0.0 | 0.0 | 0.00 | 0.00 | 0.00 | 51 | 1015.1 |
| 20260904130540 | 16 | 22 | 0.0 | 0.0 | 0.00 | 0.00 | 0.00 | 50 | 1014.9 |
| 20260904125526 | 16 | 337 | 0.0 | 0.0 | 0.00 | 0.00 | 0.00 | 48 | 1014.9 |
| 20260904124526 | 16 | 90 | 0.0 | 1.6 | 0.00 | 0.00 | 0.00 | 47 | 1014.6 |
| 20260904122526 | 17 | 90 | 0.0 | 0.0 | 0.00 | 0.00 | 0.00 | 43 | 1014.5 |
| 20260904121623 | 16 | 11 | 3.2 | 3.2 | 0.00 | 0.00 | 0.00 | 43 | 1014.5 |
| 20260904121527 | 16 | 360 | 3.2 | 3.2 | 0.00 | 0.00 | 0.00 | 43 | 1014.4 |
| 20260904120624 | 16 | 22 | 1.6 | 1.6 | 0.00 | 0.00 | 0.00 | 42 | 1014.4 |
| 20260904113742 | 17 | 157 | 0.0 | 0.0 | 0.00 | 0.00 | 0.00 | 41 | 1014.2 |
| 20260904112826 | 17 | 270 | 0.0 | 0.0 | 0.00 | 0.00 | 0.00 | 40 | 1014.4 |
| 20260904110943 | 18 | 270 | 0.0 | 1.6 | 0.00 | 0.00 | 0.00 | 36 | 1014.2 |
| 20260904110025 | 18 | 75 | 3.2 | 4.8 | 0.00 | 0.00 | 0.00 | 35 | 1014.3 |
| 20260904105026 | 18 | 168 | 0.0 | 0.0 | 0.00 | 0.00 | 0.00 | 34 | 1014.3 |
| 20260904104123 | 19 | 90 | 0.0 | 0.0 | 0.00 | 0.00 | 0.00 | 32 | 1013.9 |
| 20260904104040 | 19 | 90 | 0.0 | 0.0 | 0.00 | 0.00 | 0.00 | 32 | 1014.0 |
| 20260904103126 | 17 | 66 | 4.8 | 8.0 | 0.00 | 0.00 | 0.00 | 39 | 1013.8 |
| 20260904102224 | 17 | 360 | 0.0 | 3.2 | 0.00 | 0.00 | 0.00 | 38 | 1013.8 |
| 20260904101224 | 18 | 360 | 0.0 | 0.0 | 0.00 | 0.00 | 0.00 | 35 | 1013.8 |
| 20260904100240 | 18 | 360 | 3.2 | 4.8 | 0.00 | 0.00 | 0.00 | 34 | 1013.5 |
| 20260904095324 | 18 | 247 | 0.0 | 1.6 | 0.00 | 0.00 | 0.00 | 35 | 1013.4 |
| 20260904094325 | 18 | 292 | 0.0 | 0.0 | 0.00 | 0.00 | 0.00 | 35 | 1013.4 |
| 20260904093341 | 19 | 341 | 4.8 | 6.4 | 0.00 | 0.00 | 0.00 | 30 | 1013.3 |
| 20260904092426 | 19 | 346 | 3.2 | 4.8 | 0.00 | 0.00 | 0.00 | 31 | 1013.4 |
| 20260904090424 | 20 | 247 | 3.2 | 3.2 | 0.00 | 0.00 | 0.00 | 28 | 1013.4 |
| 20260904085441 | 19 | 209 | 0.0 | 1.6 | 0.00 | 0.00 | 0.00 | 29 | 1013.3 |
| 20260904084525 | 20 | 360 | 0.0 | 3.2 | 0.00 | 0.00 | 0.00 | 26 | 1013.3 |
| 20260904083526 | 21 | 360 | 0.0 | 3.2 | 0.00 | 0.00 | 0.00 | 23 | 1013.5 |
| 20260904082623 | 20 | 135 | 0.0 | 3.2 | 0.00 | 0.00 | 0.00 | 22 | 1013.3 |
| 20260904081642 | 20 | 225 | 3.2 | 4.8 | 0.00 | 0.00 | 0.00 | 23 | 1013.5 |
| 20260904080624 | 20 | 225 | 1.6 | 1.6 | 0.00 | 0.00 | 0.00 | 23 | 1013.5 |
| 20260904074642 | 21 | 247 | 0.0 | 0.0 | 0.00 | 0.00 | 0.00 | 23 | 1013.3 |
| 20260904073725 | 21 | 247 | 0.0 | 3.2 | 0.00 | 0.00 | 0.00 | 23 | 1013.4 |
| 20260904072726 | 22 | 225 | 0.0 | 1.6 | 0.00 | 0.00 | 0.00 | 22 | 1013.3 |
| 20260904071724 | 22 | 67 | 3.2 | 6.4 | 0.00 | 0.00 | 0.00 | 20 | 1013.1 |
| 20260904070740 | 21 | 45 | 0.0 | 0.0 | 0.00 | 0.00 | 0.00 | 23 | 1013.1 |
| 20260904065740 | 20 | 25 | 3.2 | 6.4 | 0.00 | 0.00 | 0.00 | 27 | 1013.1 |
| 20260904063740 | 21 | 22 | 3.2 | 3.2 | 0.00 | 0.00 | 0.00 | 25 | 1013.1 |
| 20260904062824 | 21 | 360 | 0.0 | 0.0 | 0.00 | 0.00 | 0.00 | 25 | 1013.1 |
| 20260904055915 | 21 | 202 | 0.0 | 1.6 | 0.00 | 0.00 | 0.00 | 23 | 1012.9 |